When you browse on this site, cookies collect data to enhance your experience and personalize the content and advertising you see.
Visit our Privacy Policy to learn more. By continuing to use the site, you agree to this use of cookies and data.
  • în România
  • Lista ţărilor
  • Pe 7 zile
  • Temperatura apei
  • Hartă satelitară
  • Meteo pe hartă
  • Widget-uri
  • user-avatar
    Intrare

    Meteo pe oră la Koluszki

    Astăzi, 25 Mai, Sâmbătă

    Timp Temperatura Precipitaţii Vânt Presiune Umiditate
    00:00 +12°C° 0 mm 2 m/s 741 mmHg 78%
    01:00 +12°C° 0 mm 2 m/s 741 mmHg 80%
    02:00 +10°C° 0 mm 2 m/s 741 mmHg 80%
    03:00 +10°C° 0 mm 2 m/s 741 mmHg 80%
    04:00 +10°C° 0 mm 2 m/s 741 mmHg 80%
    05:00 +12°C° 0 mm 2 m/s 741 mmHg 76%
    06:00 +13°C° 0 mm 3 m/s 741 mmHg 72%
    07:00 +16°C° 0 mm 3 m/s 741 mmHg 65%
    08:00 +17°C° 0 mm 3 m/s 741 mmHg 61%
    09:00 +19°C° 0 mm 3 m/s 742 mmHg 57%
    10:00 +21°C° 0 mm 4 m/s 742 mmHg 53%
    11:00 +21°C° 0.1 mm 4 m/s 741 mmHg 53%
    12:00 +22°C° 0.1 mm 5 m/s 741 mmHg 54%
    13:00 +22°C° 0.1 mm 5 m/s 741 mmHg 54%
    14:00 +22°C° 0.1 mm 5 m/s 741 mmHg 55%
    15:00 +21°C° 0.1 mm 5 m/s 741 mmHg 56%
    16:00 +21°C° 0.1 mm 5 m/s 741 mmHg 57%
    17:00 +19°C° 0 mm 4 m/s 741 mmHg 63%
    18:00 +18°C° 0 mm 4 m/s 741 mmHg 70%
    19:00 +17°C° 0 mm 3 m/s 741 mmHg 76%
    20:00 +14°C° 0 mm 3 m/s 742 mmHg 80%
    21:00 +14°C° 0 mm 2 m/s 742 mmHg 84%
    22:00 +12°C° 0 mm 2 m/s 742 mmHg 88%
    23:00 +12°C° 0 mm 2 m/s 743 mmHg 89%

    Mâine, 26 Mai, Duminică

    Timp Temperatura Precipitaţii Vânt Presiune Umiditate
    00:00 +10°C° 0 mm 2 m/s 743 mmHg 89%
    01:00 +11°C° 0 mm 1 m/s 743 mmHg 90%
    02:00 +10°C° 0 mm 1 m/s 743 mmHg 91%
    03:00 +10°C° 0 mm 1 m/s 743 mmHg 91%
    04:00 +9°C° 0 mm 2 m/s 743 mmHg 92%
    05:00 +10°C° 0 mm 2 m/s 743 mmHg 86%
    06:00 +11°C° 0 mm 3 m/s 743 mmHg 80%
    07:00 +13°C° 0 mm 3 m/s 743 mmHg 75%
    08:00 +14°C° 0 mm 4 m/s 743 mmHg 71%
    09:00 +15°C° 0 mm 4 m/s 743 mmHg 67%
    10:00 +16°C° 0 mm 5 m/s 742 mmHg 63%
    11:00 +17°C° 0 mm 5 m/s 742 mmHg 60%
    12:00 +19°C° 0 mm 5 m/s 742 mmHg 58%
    13:00 +20°C° 0 mm 6 m/s 742 mmHg 55%
    14:00 +20°C° 0 mm 5 m/s 741 mmHg 55%
    15:00 +20°C° 0 mm 5 m/s 741 mmHg 56%
    16:00 +20°C° 0 mm 5 m/s 741 mmHg 56%
    17:00 +19°C° 0 mm 4 m/s 740 mmHg 61%
    18:00 +18°C° 0 mm 3 m/s 740 mmHg 66%
    19:00 +17°C° 0 mm 2 m/s 740 mmHg 71%
    20:00 +17°C° 0 mm 2 m/s 740 mmHg 74%
    21:00 +16°C° 0 mm 3 m/s 741 mmHg 77%
    22:00 +14°C° 0 mm 3 m/s 741 mmHg 79%
    23:00 +14°C° 0 mm 3 m/s 741 mmHg 79%

    Poimâine, 27 Mai, Luni

    Timp Temperatura Precipitaţii Vânt Presiune Umiditate
    00:00 +14°C° 0 mm 3 m/s 741 mmHg 79%
    01:00 +14°C° 0 mm 3 m/s 741 mmHg 79%
    02:00 +13°C° 0 mm 3 m/s 740 mmHg 82%
    03:00 +13°C° 0 mm 3 m/s 740 mmHg 84%
    04:00 +12°C° 0 mm 3 m/s 740 mmHg 86%
    05:00 +14°C° 0 mm 3 m/s 740 mmHg 82%
    06:00 +17°C° 0 mm 4 m/s 740 mmHg 77%
    07:00 +17°C° 0 mm 5 m/s 740 mmHg 73%
    08:00 +20°C° 0 mm 5 m/s 740 mmHg 67%
    09:00 +22°C° 0 mm 6 m/s 740 mmHg 60%
    10:00 +23°C° 0 mm 6 m/s 740 mmHg 54%
    11:00 +24°C° 0 mm 6 m/s 740 mmHg 52%
    12:00 +24°C° 0 mm 6 m/s 739 mmHg 50%
    13:00 +26°C° 0 mm 6 m/s 739 mmHg 48%
    14:00 +26°C° 0 mm 6 m/s 739 mmHg 49%
    15:00 +26°C° 0 mm 5 m/s 739 mmHg 51%
    16:00 +26°C° 0 mm 5 m/s 739 mmHg 53%
    17:00 +23°C° 0 mm 4 m/s 739 mmHg 60%
    18:00 +22°C° 0 mm 3 m/s 739 mmHg 68%
    19:00 +20°C° 0 mm 3 m/s 739 mmHg 75%
    20:00 +19°C° 0.1 mm 2 m/s 739 mmHg 79%
    21:00 +18°C° 0.1 mm 2 m/s 739 mmHg 84%
    22:00 +18°C° 0.1 mm 1 m/s 739 mmHg 88%
    23:00 +16°C° 0 mm 1 m/s 739 mmHg 89%

    28 Mai, Marţi

    Timp Temperatura Precipitaţii Vânt Presiune Umiditate
    00:00 +16°C° 0 mm 1 m/s 739 mmHg 90%
    01:00 +16°C° 0 mm 1 m/s 739 mmHg 90%
    02:00 +16°C° 0.4 mm 1 m/s 739 mmHg 91%
    03:00 +16°C° 0.4 mm 2 m/s 738 mmHg 92%
    04:00 +16°C° 0.4 mm 2 m/s 738 mmHg 93%
    05:00 +16°C° 1.3 mm 2 m/s 738 mmHg 93%
    06:00 +16°C° 1.3 mm 1 m/s 737 mmHg 94%
    07:00 +16°C° 1.3 mm 1 m/s 737 mmHg 94%
    08:00 +18°C° 0.3 mm 2 m/s 737 mmHg 90%
    09:00 +19°C° 0.3 mm 2 m/s 737 mmHg 85%
    10:00 +20°C° 0.3 mm 3 m/s 736 mmHg 80%
    11:00 +21°C° 0.8 mm 3 m/s 736 mmHg 76%
    12:00 +22°C° 0.8 mm 3 m/s 736 mmHg 72%
    13:00 +24°C° 0.8 mm 3 m/s 735 mmHg 67%
    14:00 +24°C° 0.6 mm 3 m/s 735 mmHg 67%
    15:00 +24°C° 0.6 mm 3 m/s 735 mmHg 66%
    16:00 +24°C° 0.6 mm 2 m/s 735 mmHg 65%
    17:00 +23°C° 0.8 mm 2 m/s 735 mmHg 70%
    18:00 +21°C° 0.8 mm 2 m/s 735 mmHg 76%
    19:00 +19°C° 0.8 mm 2 m/s 735 mmHg 82%
    20:00 +19°C° 0.1 mm 2 m/s 735 mmHg 83%
    21:00 +18°C° 0.1 mm 2 m/s 735 mmHg 84%
    22:00 +17°C° 0.1 mm 2 m/s 735 mmHg 85%
    23:00 +17°C° 0.1 mm 2 m/s 735 mmHg 88%

    29 Mai, Miercuri

    Timp Temperatura Precipitaţii Vânt Presiune Umiditate
    00:00 +16°C° 0.1 mm 2 m/s 735 mmHg 92%
    01:00 +14°C° 0.1 mm 3 m/s 735 mmHg 95%
    02:00 +14°C° 0.1 mm 3 m/s 736 mmHg 95%
    03:00 +13°C° 0.1 mm 4 m/s 736 mmHg 95%
    04:00 +13°C° 0.1 mm 4 m/s 736 mmHg 95%
    05:00 +12°C° 0.6 mm 5 m/s 736 mmHg 94%
    06:00 +10°C° 0.6 mm 5 m/s 737 mmHg 94%
    07:00 +10°C° 0.6 mm 5 m/s 737 mmHg 93%
    08:00 +9°C° 0.9 mm 6 m/s 738 mmHg 93%
    09:00 +9°C° 0.9 mm 6 m/s 738 mmHg 93%
    10:00 +8°C° 0.9 mm 7 m/s 739 mmHg 92%
    11:00 +9°C° 0.2 mm 7 m/s 739 mmHg 91%
    12:00 +9°C° 0.2 mm 7 m/s 740 mmHg 89%
    13:00 +9°C° 0.2 mm 7 m/s 741 mmHg 88%
    14:00 +10°C° 0.1 mm 7 m/s 741 mmHg 85%
    15:00 +10°C° 0.1 mm 6 m/s 742 mmHg 83%
    16:00 +11°C° 0.1 mm 6 m/s 742 mmHg 81%
    17:00 +10°C° 0 mm 5 m/s 743 mmHg 80%
    18:00 +11°C° 0 mm 4 m/s 743 mmHg 79%
    19:00 +11°C° 0 mm 3 m/s 744 mmHg 78%
    20:00 +10°C° 0 mm 3 m/s 744 mmHg 77%
    21:00 +9°C° 0 mm 3 m/s 745 mmHg 76%
    22:00 +8°C° 0 mm 3 m/s 746 mmHg 75%
    23:00 +8°C° 0 mm 3 m/s 746 mmHg 77%

    30 Mai, Joi

    Timp Temperatura Precipitaţii Vânt Presiune Umiditate
    00:00 +7°C° 0 mm 3 m/s 746 mmHg 79%
    01:00 +7°C° 0 mm 3 m/s 747 mmHg 81%
    02:00 +7°C° 0 mm 3 m/s 747 mmHg 80%
    03:00 +7°C° 0 mm 2 m/s 748 mmHg 80%
    04:00 +7°C° 0 mm 2 m/s 748 mmHg 79%
    05:00 +8°C° 0 mm 2 m/s 748 mmHg 78%
    06:00 +8°C° 0 mm 2 m/s 749 mmHg 76%
    07:00 +8°C° 0 mm 2 m/s 749 mmHg 74%
    08:00 +9°C° 0 mm 2 m/s 749 mmHg 71%
    09:00 +10°C° 0 mm 3 m/s 749 mmHg 67%
    10:00 +11°C° 0 mm 3 m/s 750 mmHg 64%
    11:00 +12°C° 0 mm 3 m/s 750 mmHg 59%
    12:00 +14°C° 0 mm 2 m/s 750 mmHg 54%
    13:00 +15°C° 0 mm 2 m/s 750 mmHg 49%
    14:00 +16°C° 0 mm 1 m/s 749 mmHg 49%
    15:00 +16°C° 0 mm 1 m/s 749 mmHg 49%
    16:00 +15°C° 0 mm 0 m/s 749 mmHg 48%
    17:00 +15°C° 0 mm 1 m/s 749 mmHg 53%
    18:00 +14°C° 0 mm 1 m/s 748 mmHg 58%
    19:00 +14°C° 0 mm 1 m/s 748 mmHg 63%
    20:00 +13°C° 0 mm 1 m/s 748 mmHg 65%
    21:00 +12°C° 0 mm 1 m/s 748 mmHg 66%
    22:00 +10°C° 0 mm 2 m/s 748 mmHg 68%
    23:00 +10°C° 0 mm 2 m/s 748 mmHg 67%
    Arată mai mult